[[{"header":{"parameterUnit":"m.s-1","parameterCategory":2,"la1":30.2991,"la2":30.254,"lo1":-89.0895,"lo2":-89.0444,"dy":0.0017,"dx":0.0017,"nx":28,"ny":28,"refTime":"2025-05-15T03:00:00:Z","depth":"0","parameterNumber":2,"parameterNumberName":"U-component_of_CURRENTS"},"data":[0,0,0,0,0,0,0,0,0,0,0,0,0,0,0,0,0,0,0,0,0,0,0,0,0,0,0,0,0,0,0,0,0,0,0,0,0,0,0,0,0,0,0,0,0,0,0,0,0,0,0,0,0,0,0,0,0,0,-0.2362,-0.2362,0,-0.237,-0.237,-0.237,-0.2331,-0.233,-0.233,-0.2329,-0.2403,-0.2406,-0.2408,0,0,0,0,0,0,0,0,0,0,0,0,0,-0.2305,-0.2306,-0.2362,-0.2362,-0.2363,-0.237,-0.237,-0.237,-0.2331,-0.233,-0.2329,-0.2328,-0.2402,-0.2405,-0.2409,0,0,0,0,0,0,0,0,0,0,0,0,0,-0.232,-0.2306,-0.2362,-0.2347,-0.2346,-0.237,-0.237,-0.237,-0.2331,-0.233,-0.2329,-0.2328,-0.2401,-0.2405,-0.2409,-0.2458,0,0,-0.2422,-0.2423,0,0,0,0,0,0,0,0,-0.2319,-0.2321,-0.2349,-0.2348,-0.2347,-0.2351,-0.2377,-0.2404,-0.2332,-0.2333,-0.2329,-0.2327,-0.2395,-0.24,-0.2398,-0.2462,-0.2465,-0.2422,-0.2424,-0.2426,-0.2427,0,0,0,0,0,0,0,-0.2318,-0.2321,-0.2361,-0.235,-0.2349,-0.2338,-0.2338,-0.2381,-0.2369,-0.2333,-0.2331,-0.2338,-0.2395,-0.2394,-0.24,-0.2466,-0.2422,-0.2425,-0.2428,-0.243,-0.2502,-0.2502,0,0,0,0,0,0,-0.2326,-0.232,-0.2361,-0.2362,-0.2334,-0.234,-0.234,-0.2348,-0.2367,-0.237,-0.2339,-0.2336,-0.2387,-0.2395,-0.2402,-0.2435,-0.2426,-0.243,-0.2432,-0.2503,-0.2502,-0.2502,0,0,0,0,0,0,-0.2325,-0.233,-0.2361,-0.2344,-0.2347,-0.2343,-0.2352,-0.2349,-0.2345,-0.2372,-0.2374,-0.2338,-0.2387,-0.2396,-0.2412,-0.2439,-0.2432,-0.2436,-0.2503,-0.2503,-0.2502,-0.2519,0,0,0,0,0,0,-0.2323,-0.2329,-0.2332,-0.2345,-0.2349,-0.2385,-0.2353,-0.235,-0.2354,-0.235,-0.2373,-0.2378,-0.2387,-0.2405,-0.2416,-0.2444,-0.2439,-0.2504,-0.2503,-0.2502,-0.2519,-0.2519,-0.2518,0,0,0,0,0,-0.2321,-0.2334,-0.2332,-0.2337,-0.2355,-0.2386,-0.2387,-0.2377,-0.2355,-0.2365,-0.2351,-0.2377,-0.2407,-0.2408,-0.2421,-0.2451,-0.2505,-0.2503,-0.2502,-0.2519,-0.2519,-0.2518,0,0,0,0,0,0,-0.2304,-0.2333,-0.233,-0.2348,-0.237,-0.2381,-0.2386,-0.2381,-0.2378,-0.2368,-0.2376,-0.2381,-0.2404,-0.2418,-0.2419,-0.2463,-0.2459,-0.2461,-0.2468,-0.2468,-0.2468,-0.248,-0.2442,0,0,0,0,0,-0.2305,-0.232,-0.235,-0.236,-0.2375,-0.238,-0.2387,-0.2388,-0.2391,-0.2387,-0.2398,-0.2402,-0.2412,-0.2429,-0.2443,-0.2481,-0.2473,-0.2502,-0.2502,-0.2502,-0.2517,-0.2506,-0.2507,-0.2498,-0.2498,-0.2498,0,0,-0.2297,-0.2316,-0.2321,-0.2357,-0.2367,-0.2401,-0.238,-0.2401,-0.2419,-0.2401,-0.2416,-0.2409,-0.2417,-0.244,-0.2454,-0.2457,-0.2495,-0.2501,-0.2501,-0.2516,-0.2505,-0.2506,-0.2507,-0.2497,-0.2497,-0.2497,0,0,-0.2302,-0.2311,-0.2333,-0.2363,-0.2396,-0.2408,-0.2418,-0.2438,-0.2436,-0.2456,-0.2432,-0.2428,-0.2463,-0.2461,-0.2467,-0.2479,-0.2489,-0.2489,-0.2514,-0.2503,-0.2504,-0.2505,-0.2475,-0.2474,-0.2495,-0.2495,-0.2495,0,-0.229,-0.2321,-0.2343,-0.2383,-0.2402,-0.2416,-0.2447,-0.2463,-0.2479,-0.2477,-0.2464,-0.2465,-0.2474,-0.2488,-0.2482,-0.2484,-0.247,-0.2518,-0.2505,-0.2506,-0.2507,-0.2476,-0.2474,-0.2496,-0.2496,-0.2496,-0.2495,0,-0.232,-0.2349,-0.2366,-0.2418,-0.2447,-0.2474,-0.2511,-0.2527,-0.2521,-0.2526,-0.253,-0.2517,-0.2515,-0.2517,-0.2509,-0.2521,-0.2505,-0.2501,-0.251,-0.2509,-0.2476,-0.2473,-0.2497,-0.2496,-0.2496,-0.2496,0,0,-0.2272,-0.2368,-0.2369,-0.2398,-0.2463,-0.2487,-0.253,-0.2562,-0.2569,-0.2581,-0.2579,-0.2585,-0.2565,-0.2567,-0.2552,-0.2548,-0.2531,-0.2534,-0.2533,-0.2513,-0.2493,-0.2382,-0.2368,-0.2527,-0.2527,-0.2528,-0.246,0,-0.2279,-0.2349,-0.2397,-0.245,-0.2486,-0.2526,-0.2562,-0.2594,-0.2602,-0.2609,-0.26,-0.2595,-0.259,-0.2574,-0.2574,-0.2543,-0.2529,-0.2549,-0.249,-0.2488,-0.2398,-0.2364,-0.2255,-0.2177,-0.2458,-0.2457,-0.2457,0,-0.228,-0.2328,-0.2384,-0.2461,-0.2478,-0.2512,-0.2548,-0.2586,-0.2616,-0.262,-0.2625,-0.2616,-0.2615,-0.2598,-0.2568,-0.2581,-0.2543,-0.2516,-0.2513,-0.2408,-0.2373,-0.2227,-0.2163,-0.2156,-0.2453,-0.2454,-0.2454,0,-0.2212,-0.2309,-0.2344,-0.2373,-0.2469,-0.2487,-0.2527,-0.2572,-0.2592,-0.2617,-0.2619,-0.2626,-0.2607,-0.2588,-0.2535,-0.2555,-0.2481,-0.2497,-0.236,-0.2351,-0.2247,-0.2228,-0.2178,-0.2468,-0.2468,-0.2468,-0.2468,0,-0.2186,-0.2211,-0.2313,-0.2331,-0.236,-0.2445,-0.2466,-0.2507,-0.2557,-0.2565,-0.2609,-0.2593,-0.2604,-0.2564,-0.2532,-0.2422,-0.2474,-0.2355,-0.2325,-0.2244,-0.2227,-0.2207,-0.2248,-0.2465,-0.2466,-0.2466,-0.2467,0,-0.2095,-0.217,-0.2211,-0.2305,-0.2328,-0.2342,-0.2426,-0.2441,-0.2507,-0.2517,-0.2524,-0.256,-0.2506,-0.2487,-0.2431,-0.2386,-0.2265,-0.2255,-0.2145,-0.2103,-0.1972,-0.2018,-0.1964,-0.1909,-0.2106,-0.2102,-0.21,0,-0.2053,-0.2067,-0.2156,-0.2167,-0.2202,-0.2248,-0.2273,-0.2382,-0.2407,-0.2474,-0.2463,-0.2442,-0.2376,-0.226,-0.2177,-0.2077,-0.2121,-0.1935,-0.1953,-0.1935,-0.1967,-0.2025,-0.1988,-0.1818,-0.1814,-0.181,-0.1807,0,-0.1953,-0.1982,-0.2009,-0.2038,-0.2066,-0.2108,-0.2164,-0.2185,-0.2299,-0.2304,-0.2286,-0.224,-0.215,-0.1992,-0.1881,-0.1821,-0.1896,-0.1849,-0.1868,-0.1761,-0.1787,-0.1728,-0.1894,-0.1772,-0.1775,-0.1778,-0.178,-0.1781,-0.1851,-0.184,-0.1872,-0.1881,-0.1913,-0.1931,-0.1897,-0.1961,-0.1963,-0.1912,-0.2034,-0.189,-0.1866,-0.168,-0.1618,-0.1508,-0.1612,-0.1489,-0.1552,-0.1617,-0.1547,-0.1618,-0.144,-0.1442,-0.1443,-0.1444,-0.1445,0,-0.1721,-0.1715,-0.1714,-0.1717,-0.1681,-0.176,-0.1779,-0.1704,-0.1615,-0.1599,-0.1539,-0.1493,-0.1383,-0.1373,-0.1313,-0.1249,-0.1253,-0.1248,-0.1332,-0.1312,-0.1386,-0.1354,-0.1103,-0.1103,-0.1103,-0.1103,-0.1103,-0.1103,-0.1651,-0.1596,-0.1593,-0.1478,-0.1469,-0.1369,-0.1335,-0.1239,-0.1174,-0.1013,-0.094,-0.0923,-0.1101,-0.13,-0.1255,-0.1189,-0.1204,-0.1158,-0.1216,-0.1306,-0.1335,-0.1363,-0.134,-0.109,-0.1091,-0.1079,-0.108,-0.108]},{"header":{"parameterUnit":"m.s-1","parameterCategory":2,"la1":30.2991,"la2":30.254,"lo1":-89.0895,"lo2":-89.0444,"dy":0.0017,"dx":0.0017,"nx":28,"ny":28,"refTime":"2025-05-15T03:00:00:Z","depth":"0","parameterNumber":3,"parameterNumberName":"V-component_of_CURRENTS"},"data":[0,0,0,0,0,0,0,0,0,0,0,0,0,0,0,0,0,0,0,0,0,0,0,0,0,0,0,0,0,0,0,0,0,0,0,0,0,0,0,0,0,0,0,0,0,0,0,0,0,0,0,0,0,0,0,0,0,0,-0.0106,-0.0105,0,-0.0041,-0.004,-0.0039,0.0012,0.0012,0.0013,0.0013,0.0291,0.0297,0.0304,0,0,0,0,0,0,0,0,0,0,0,0,0,-0.0134,-0.0134,-0.0106,-0.0105,-0.0105,-0.0041,-0.004,-0.0039,0.0012,0.0012,0.0013,0.0013,0.0288,0.0297,0.0305,0,0,0,0,0,0,0,0,0,0,0,0,0,-0.0099,-0.0134,-0.0106,-0.0072,-0.0069,-0.0041,-0.004,-0.0039,0.0012,0.0012,0.0013,0.0014,0.0286,0.0296,0.0306,0.036,0,0,0.0338,0.0343,0,0,0,0,0,0,0,0,-0.0102,-0.0098,-0.0078,-0.0075,-0.0071,-0.0023,0.0052,0.0105,0.0012,-0.0017,0.0013,0.0014,0.0204,0.0221,0.0231,0.0373,0.0385,0.0339,0.0346,0.035,0.0353,0,0,0,0,0,0,0,-0.0104,-0.0101,-0.0079,-0.0077,-0.0073,-0.0043,-0.0037,0.0062,0.0094,-0.0015,-0.0011,-0.0006,0.0208,0.0221,0.0239,0.0389,0.0339,0.0348,0.0355,0.0359,0.0544,0.0542,0,0,0,0,0,0,-0.0118,-0.0103,-0.0081,-0.0077,-0.0086,-0.0043,-0.0037,-0.0038,0.0089,0.0106,-0.0007,-0.0004,0.0202,0.0226,0.0249,0.0297,0.035,0.036,0.0366,0.0545,0.0543,0.0542,0,0,0,0,0,0,-0.0119,-0.0117,-0.0084,-0.0089,-0.0083,-0.0044,-0.0044,-0.0037,-0.0024,0.0092,0.0114,-0.0002,0.0204,0.0234,0.0298,0.031,0.0365,0.0374,0.0547,0.0545,0.0543,0.041,0,0,0,0,0,0,-0.012,-0.0118,-0.0124,-0.009,-0.0083,-0.0075,-0.0045,-0.0036,-0.0022,-0.0018,0.0105,0.013,0.0206,0.0281,0.0308,0.0325,0.0383,0.0549,0.0546,0.0543,0.0416,0.0403,0.0393,0,0,0,0,0,-0.0122,-0.0138,-0.0125,-0.0122,-0.0093,-0.0076,-0.0069,-0.0038,-0.0023,-0.0022,0.0034,0.0126,0.0284,0.0287,0.032,0.0341,0.055,0.0547,0.0544,0.0421,0.0406,0.0393,0,0,0,0,0,0,-0.0157,-0.0134,-0.0119,-0.0128,-0.0106,-0.0068,-0.0067,-0.0044,-0.0002,0.0005,0.011,0.0139,0.0197,0.0278,0.0279,0.038,0.0434,0.0437,0.0329,0.0316,0.0305,0.0302,0.0391,0,0,0,0,0,-0.0168,-0.0173,-0.0142,-0.015,-0.0142,-0.0105,-0.0094,-0.0073,-0.0032,-0.0014,0.0065,0.0145,0.0209,0.0265,0.0335,0.0404,0.0475,0.0435,0.0423,0.0413,0.0429,0.0497,0.0494,0.0532,0.0532,0.0532,0,0,-0.0185,-0.0172,-0.0175,-0.0157,-0.0137,-0.0136,-0.0097,-0.0087,-0.0081,0.0016,0.005,0.011,0.0211,0.0262,0.03,0.0338,0.0436,0.0409,0.04,0.0422,0.0494,0.0491,0.0488,0.0529,0.053,0.053,0,0,-0.0226,-0.0209,-0.0228,-0.0213,-0.019,-0.0164,-0.0164,-0.0128,-0.0105,-0.0071,-0.0015,0.0036,0.0155,0.0213,0.0263,0.0236,0.0359,0.0266,0.0232,0.0296,0.0294,0.0293,0.0363,0.037,0.0276,0.0275,0.0275,0,-0.0248,-0.0266,-0.0231,-0.0243,-0.0235,-0.0181,-0.0196,-0.0166,-0.0115,-0.0091,-0.0073,0.0054,0.0133,0.0199,0.0176,0.0216,0.0271,0.0276,0.0282,0.0283,0.0284,0.0357,0.0366,0.0269,0.0269,0.027,0.0271,0,-0.0302,-0.0313,-0.0323,-0.0317,-0.0302,-0.0306,-0.026,-0.0238,-0.0201,-0.0161,-0.01,-0.0022,0.006,0.0085,0.0128,0.0178,0.0218,0.0244,0.0317,0.0272,0.0351,0.0363,0.0259,0.0261,0.0263,0.0265,0,0,-0.0358,-0.0363,-0.0365,-0.0374,-0.0341,-0.0336,-0.0317,-0.0279,-0.0256,-0.02,-0.0164,-0.0084,-0.0036,0.002,0.0081,0.014,0.0181,0.0191,0.0198,0.0261,0.0331,0.0372,0.039,0.0206,0.0208,0.0209,0.0376,0,-0.0411,-0.0461,-0.0436,-0.0463,-0.0481,-0.042,-0.0403,-0.0355,-0.0297,-0.0245,-0.0158,-0.0101,-0.006,-0.0026,0.0033,0.0149,0.0209,0.0135,0.0367,0.0374,0.0417,0.0404,0.0454,0.0608,0.0388,0.039,0.0392,0,-0.0471,-0.0495,-0.0544,-0.0536,-0.0535,-0.0533,-0.0482,-0.0458,-0.0364,-0.0315,-0.024,-0.0165,-0.0073,-0.0041,0.0144,0.0094,0.02,0.0288,0.0297,0.0399,0.0438,0.0622,0.0639,0.0804,0.0411,0.041,0.0408,0,-0.0536,-0.0562,-0.0605,-0.0605,-0.0589,-0.0586,-0.0563,-0.0484,-0.0452,-0.0356,-0.031,-0.0195,-0.0116,0.0012,0.0188,0.0169,0.0401,0.0402,0.0544,0.0548,0.0673,0.0685,0.0884,0.0531,0.0531,0.0531,0.053,0,-0.0604,-0.0633,-0.0642,-0.0666,-0.0696,-0.0651,-0.0646,-0.0597,-0.0515,-0.0455,-0.0355,-0.0271,-0.0099,0.0054,0.019,0.0415,0.0409,0.0551,0.0598,0.0624,0.063,0.0846,0.0892,0.0537,0.0535,0.0534,0.0533,0,-0.067,-0.0679,-0.0727,-0.0733,-0.0735,-0.0754,-0.0717,-0.0698,-0.0607,-0.0522,-0.0494,-0.0314,-0.0104,0.0079,0.0323,0.0438,0.0741,0.071,0.073,0.0775,0.1029,0.1063,0.1309,0.1419,0.0886,0.0888,0.089,0,-0.0709,-0.0747,-0.0788,-0.0819,-0.0826,-0.084,-0.0839,-0.0763,-0.072,-0.0529,-0.0485,-0.0271,-0.0083,0.0279,0.0506,0.0764,0.0871,0.0953,0.0918,0.1067,0.1141,0.1156,0.1231,0.1033,0.1035,0.1038,0.1039,0,-0.0775,-0.0791,-0.083,-0.0903,-0.0928,-0.0939,-0.0919,-0.089,-0.0754,-0.0629,-0.041,-0.0242,0.0103,0.043,0.0735,0.0881,0.1074,0.1006,0.1172,0.1285,0.1308,0.1427,0.0897,0.106,0.1057,0.1056,0.1055,0.1054,-0.0809,-0.0858,-0.0912,-0.0973,-0.1005,-0.1,-0.0956,-0.0869,-0.0742,-0.0453,-0.0335,0.0031,0.0391,0.0833,0.0987,0.1324,0.1265,0.1437,0.1473,0.1479,0.1569,0.1075,0.1273,0.1272,0.1271,0.1271,0.127,0,-0.0844,-0.0899,-0.0972,-0.1026,-0.1057,-0.1055,-0.0971,-0.0854,-0.0632,-0.0335,-0.0052,0.0478,0.0875,0.1194,0.1599,0.1791,0.1823,0.1887,0.1938,0.1997,0.1593,0.1583,0.1844,0.1844,0.1844,0.1844,0.1844,0.1843,-0.0862,-0.094,-0.0983,-0.1045,-0.1073,-0.1015,-0.0933,-0.0714,-0.0459,0.0038,0.0444,0.0746,0.1138,0.1771,0.2183,0.2222,0.2403,0.2368,0.2468,0.2196,0.2157,0.212,0.2125,0.2496,0.2496,0.2883,0.2886,0.2889]}],[{"header":{"parameterUnit":"m.s-1","parameterCategory":2,"la1":30.2991,"la2":30.254,"lo1":-89.0895,"lo2":-89.0444,"dy":0.0017,"dx":0.0017,"nx":28,"ny":28,"refTime":"2025-05-15T03:00:00:Z","depth":"2","parameterNumber":2,"parameterNumberName":"U-component_of_CURRENTS"},"data":[0,0,0,0,0,0,0,0,0,0,0,0,0,0,0,0,0,0,0,0,0,0,0,0,0,0,0,0,0,0,0,0,0,0,0,0,0,0,0,0,0,0,0,0,0,0,0,0,0,0,0,0,0,0,0,0,0,0,-0.2276,-0.2277,0,-0.2295,-0.2295,-0.2295,-0.2268,-0.2268,-0.2267,-0.2266,-0.2329,-0.2331,-0.2334,0,0,0,0,0,0,0,0,0,0,0,0,0,-0.221,-0.2211,-0.2276,-0.2277,-0.2277,-0.2295,-0.2295,-0.2295,-0.2268,-0.2267,-0.2267,-0.2266,-0.2328,-0.2331,-0.2334,0,0,0,0,0,0,0,0,0,0,0,0,0,-0.2232,-0.2211,-0.2276,-0.2268,-0.2268,-0.2295,-0.2295,-0.2295,-0.2268,-0.2267,-0.2266,-0.2265,-0.2327,-0.2331,-0.2334,-0.2376,0,0,-0.2345,-0.2346,0,0,0,0,0,0,0,0,-0.223,-0.2234,-0.2269,-0.2269,-0.2268,-0.2281,-0.2295,-0.2326,-0.2269,-0.2265,-0.2266,-0.2265,-0.232,-0.2324,-0.2325,-0.2379,-0.2382,-0.2345,-0.2347,-0.2349,-0.235,0,0,0,0,0,0,0,-0.2229,-0.2233,-0.2281,-0.2269,-0.2269,-0.2262,-0.2263,-0.23,-0.2296,-0.2265,-0.2264,-0.2271,-0.2319,-0.2321,-0.2326,-0.2383,-0.2345,-0.2348,-0.235,-0.2352,-0.2412,-0.2412,0,0,0,0,0,0,-0.2235,-0.2232,-0.228,-0.2281,-0.225,-0.2264,-0.2266,-0.2276,-0.2295,-0.2297,-0.2272,-0.227,-0.2316,-0.2322,-0.2328,-0.2363,-0.2349,-0.2352,-0.2354,-0.2413,-0.2412,-0.2412,0,0,0,0,0,0,-0.2233,-0.2239,-0.2279,-0.2259,-0.2264,-0.2267,-0.2278,-0.2277,-0.2277,-0.23,-0.2303,-0.2274,-0.2315,-0.2324,-0.2338,-0.2366,-0.2353,-0.2357,-0.2413,-0.2413,-0.2412,-0.2443,0,0,0,0,0,0,-0.2231,-0.2238,-0.2243,-0.226,-0.2266,-0.2305,-0.2279,-0.2278,-0.2285,-0.2282,-0.2304,-0.2308,-0.2315,-0.2333,-0.2342,-0.237,-0.2359,-0.2414,-0.2413,-0.2412,-0.2442,-0.2443,-0.2444,0,0,0,0,0,-0.2229,-0.2244,-0.2243,-0.2249,-0.2274,-0.2306,-0.2308,-0.2304,-0.2286,-0.2298,-0.2287,-0.2307,-0.2333,-0.2335,-0.2346,-0.2376,-0.2414,-0.2413,-0.2412,-0.2442,-0.2443,-0.2444,0,0,0,0,0,0,-0.2212,-0.2243,-0.2243,-0.2264,-0.2287,-0.2303,-0.231,-0.2309,-0.2309,-0.2301,-0.2308,-0.2313,-0.2335,-0.2343,-0.2345,-0.2384,-0.2376,-0.2377,-0.2395,-0.2396,-0.2397,-0.2408,-0.2362,0,0,0,0,0,-0.2214,-0.2231,-0.2262,-0.2276,-0.2291,-0.23,-0.231,-0.2313,-0.2319,-0.2318,-0.2329,-0.2332,-0.2342,-0.2356,-0.2369,-0.2402,-0.2391,-0.2422,-0.2423,-0.2424,-0.2436,-0.2425,-0.2427,-0.2408,-0.2408,-0.2408,0,0,-0.2208,-0.2228,-0.2235,-0.2273,-0.2285,-0.2319,-0.2302,-0.2326,-0.2346,-0.2329,-0.2348,-0.2343,-0.2347,-0.237,-0.2383,-0.2382,-0.2418,-0.2422,-0.2424,-0.2435,-0.2424,-0.2426,-0.2428,-0.2408,-0.2408,-0.2408,0,0,-0.2215,-0.2227,-0.225,-0.2279,-0.2313,-0.2327,-0.2338,-0.2362,-0.2363,-0.2386,-0.2366,-0.2365,-0.2397,-0.2396,-0.24,-0.2415,-0.242,-0.2423,-0.2449,-0.2438,-0.2441,-0.2442,-0.2414,-0.2413,-0.2427,-0.2427,-0.2427,0,-0.2206,-0.2239,-0.2261,-0.2299,-0.232,-0.2335,-0.2367,-0.2384,-0.2405,-0.2407,-0.2396,-0.2403,-0.2409,-0.2425,-0.2423,-0.2423,-0.2408,-0.2451,-0.2442,-0.2443,-0.2445,-0.2415,-0.2414,-0.2429,-0.2429,-0.2428,-0.2428,0,-0.2236,-0.2266,-0.2284,-0.2334,-0.2364,-0.2392,-0.2429,-0.2448,-0.2448,-0.2457,-0.2467,-0.2457,-0.2458,-0.2461,-0.2452,-0.2466,-0.2448,-0.2442,-0.2445,-0.2449,-0.2417,-0.2415,-0.2431,-0.243,-0.243,-0.2429,0,0,-0.2195,-0.2287,-0.2289,-0.2318,-0.2382,-0.2406,-0.2451,-0.2486,-0.2497,-0.2514,-0.2519,-0.2529,-0.2513,-0.2514,-0.2501,-0.2496,-0.2485,-0.2479,-0.2478,-0.2462,-0.2448,-0.2343,-0.233,-0.248,-0.248,-0.248,-0.2417,0,-0.2203,-0.2272,-0.2319,-0.2373,-0.2408,-0.2449,-0.2486,-0.2521,-0.2534,-0.2545,-0.2542,-0.2542,-0.2538,-0.2526,-0.2527,-0.2496,-0.2483,-0.2502,-0.2439,-0.2436,-0.2352,-0.2326,-0.2165,-0.2087,-0.2415,-0.2414,-0.2414,0,-0.2207,-0.2254,-0.2312,-0.2388,-0.2406,-0.2441,-0.2483,-0.2522,-0.2555,-0.2563,-0.2573,-0.2566,-0.2569,-0.2552,-0.2524,-0.2536,-0.2498,-0.2472,-0.2468,-0.2363,-0.2327,-0.2138,-0.2071,-0.241,-0.2411,-0.2411,-0.2411,0,-0.2147,-0.2241,-0.228,-0.2309,-0.2402,-0.2423,-0.2464,-0.2513,-0.2535,-0.2565,-0.2569,-0.258,-0.2563,-0.2546,-0.2496,-0.2512,-0.2443,-0.2455,-0.2324,-0.2315,-0.2162,-0.2139,-0.2426,-0.2426,-0.2427,-0.2427,-0.2427,0,-0.2126,-0.2153,-0.2253,-0.2272,-0.2306,-0.2388,-0.2415,-0.2457,-0.2508,-0.252,-0.2565,-0.2551,-0.2561,-0.2524,-0.2493,-0.2388,-0.2438,-0.232,-0.2291,-0.2163,-0.2143,-0.2418,-0.2418,-0.2424,-0.2425,-0.2425,-0.2426,0,-0.2043,-0.2116,-0.2159,-0.2252,-0.2277,-0.2295,-0.2381,-0.2397,-0.2464,-0.2478,-0.2487,-0.252,-0.2468,-0.2452,-0.2398,-0.2354,-0.2283,-0.223,-0.2069,-0.2021,-0.2168,-0.217,-0.2092,-0.2087,-0.2084,-0.2081,-0.2078,0,-0.2005,-0.2021,-0.2112,-0.2124,-0.216,-0.221,-0.2237,-0.2344,-0.2368,-0.2437,-0.2426,-0.2408,-0.2343,-0.2232,-0.2147,-0.2052,-0.2153,-0.1866,-0.1871,-0.2153,-0.2133,-0.2141,-0.2148,-0.1675,-0.1669,-0.1665,-0.1661,0,-0.1912,-0.1943,-0.1972,-0.2004,-0.2035,-0.2079,-0.2134,-0.2155,-0.2266,-0.2281,-0.2266,-0.2222,-0.2121,-0.1934,-0.1825,-0.1763,-0.1876,-0.1768,-0.2091,-0.1785,-0.1755,-0.1737,-0.1759,-0.162,-0.1624,-0.1627,-0.1629,-0.1631,-0.1816,-0.1808,-0.1843,-0.1856,-0.1891,-0.191,-0.1887,-0.1955,-0.1967,-0.1955,-0.2034,-0.19,-0.1874,-0.1587,-0.1498,-0.1433,-0.1568,-0.1525,-0.1542,-0.1563,-0.1527,-0.1491,-0.1299,-0.1302,-0.1303,-0.1305,-0.1307,0,-0.1691,-0.169,-0.1692,-0.1698,-0.1663,-0.1745,-0.1775,-0.1723,-0.1664,-0.1693,-0.1649,-0.1446,-0.1304,-0.128,-0.1102,-0.1079,-0.1097,-0.1053,-0.1088,-0.1127,-0.1163,-0.111,-0.0771,-0.0769,-0.0768,-0.0766,0,0,-0.1625,-0.1574,-0.1574,-0.1461,-0.1455,-0.1371,-0.1351,-0.1301,-0.1279,-0.1192,-0.1125,-0.12,-0.1209,-0.0978,-0.0942,-0.0821,-0.0966,-0.0779,-0.1205,-0.1282,-0.1316,-0.1426,-0.1387,0,0,0,0,0]},{"header":{"parameterUnit":"m.s-1","parameterCategory":2,"la1":30.2991,"la2":30.254,"lo1":-89.0895,"lo2":-89.0444,"dy":0.0017,"dx":0.0017,"nx":28,"ny":28,"refTime":"2025-05-15T03:00:00:Z","depth":"2","parameterNumber":3,"parameterNumberName":"V-component_of_CURRENTS"},"data":[0,0,0,0,0,0,0,0,0,0,0,0,0,0,0,0,0,0,0,0,0,0,0,0,0,0,0,0,0,0,0,0,0,0,0,0,0,0,0,0,0,0,0,0,0,0,0,0,0,0,0,0,0,0,0,0,0,0,-0.0197,-0.0197,0,-0.0134,-0.0134,-0.0133,-0.0083,-0.0083,-0.0082,-0.0082,0.0109,0.0114,0.0118,0,0,0,0,0,0,0,0,0,0,0,0,0,-0.0233,-0.0233,-0.0197,-0.0197,-0.0196,-0.0135,-0.0134,-0.0133,-0.0083,-0.0083,-0.0082,-0.0082,0.0107,0.0113,0.0119,0,0,0,0,0,0,0,0,0,0,0,0,0,-0.0198,-0.0233,-0.0197,-0.0165,-0.0161,-0.0135,-0.0134,-0.0132,-0.0083,-0.0083,-0.0082,-0.0082,0.0106,0.0112,0.0119,0.0151,0,0,0.0141,0.0144,0,0,0,0,0,0,0,0,-0.02,-0.0196,-0.017,-0.0167,-0.0163,-0.0117,-0.0076,-0.0031,-0.0084,-0.0112,-0.0082,-0.0081,0.0044,0.0056,0.0067,0.016,0.0169,0.0142,0.0146,0.0149,0.0151,0,0,0,0,0,0,0,-0.0202,-0.0198,-0.0171,-0.0169,-0.0165,-0.0139,-0.0134,-0.0068,-0.0035,-0.0109,-0.0106,-0.0101,0.0047,0.0059,0.0072,0.0171,0.0141,0.0148,0.0152,0.0155,0.0287,0.0287,0,0,0,0,0,0,-0.0215,-0.0201,-0.0173,-0.0169,-0.0182,-0.0139,-0.0133,-0.0131,-0.0038,-0.0025,-0.0101,-0.0099,0.0047,0.0063,0.0079,0.0121,0.0149,0.0156,0.016,0.0288,0.0287,0.0286,0,0,0,0,0,0,-0.0216,-0.0213,-0.0176,-0.0184,-0.0178,-0.014,-0.0138,-0.0131,-0.0117,-0.0034,-0.0017,-0.0095,0.0048,0.0069,0.0121,0.0129,0.0159,0.0165,0.0289,0.0288,0.0287,0.0207,0,0,0,0,0,0,-0.0218,-0.0214,-0.0219,-0.0186,-0.0178,-0.0166,-0.0138,-0.013,-0.0115,-0.0111,-0.0023,-0.0005,0.005,0.011,0.0128,0.0139,0.0171,0.029,0.0288,0.0287,0.021,0.0203,0.0197,0,0,0,0,0,-0.0219,-0.0232,-0.0219,-0.0216,-0.0185,-0.0167,-0.0161,-0.013,-0.0116,-0.0115,-0.0065,-0.0008,0.0114,0.0114,0.0136,0.015,0.029,0.0289,0.0287,0.0213,0.0204,0.0197,0,0,0,0,0,0,-0.0252,-0.0227,-0.0213,-0.0217,-0.0196,-0.0159,-0.0157,-0.0136,-0.0097,-0.0091,-0.0013,0.0008,0.0055,0.0107,0.0105,0.018,0.0211,0.0214,0.0148,0.014,0.0133,0.0125,0.0177,0,0,0,0,0,-0.0262,-0.0263,-0.0233,-0.0237,-0.0229,-0.0194,-0.0183,-0.0163,-0.0125,-0.0109,-0.0049,0.0012,0.0064,0.0104,0.0156,0.0204,0.0256,0.0224,0.0217,0.0211,0.0217,0.0281,0.0281,0.0281,0.0281,0.0281,0,0,-0.0276,-0.0263,-0.0263,-0.0244,-0.0224,-0.0221,-0.0185,-0.0175,-0.0166,-0.009,-0.0059,-0.0008,0.0067,0.0111,0.0138,0.016,0.0236,0.0209,0.0204,0.0213,0.028,0.028,0.028,0.028,0.028,0.028,0,0,-0.0313,-0.0294,-0.031,-0.0293,-0.0271,-0.0245,-0.0245,-0.021,-0.0187,-0.0154,-0.0103,-0.0055,0.0029,0.0082,0.0121,0.0111,0.0191,0.0128,0.0103,0.0164,0.0165,0.0167,0.0222,0.0229,0.0133,0.0133,0.0133,0,-0.0333,-0.0345,-0.0311,-0.032,-0.0311,-0.026,-0.0272,-0.0241,-0.0193,-0.0169,-0.0154,-0.0044,0.0017,0.008,0.007,0.01,0.0142,0.0128,0.0156,0.0159,0.0162,0.0218,0.0227,0.0129,0.0129,0.0129,0.013,0,-0.038,-0.0386,-0.0394,-0.0384,-0.0368,-0.037,-0.0323,-0.03,-0.0264,-0.0225,-0.0166,-0.0094,-0.0025,-0.0002,0.0035,0.0086,0.0111,0.0133,0.0177,0.0157,0.0218,0.0228,0.0123,0.0124,0.0125,0.0126,0,0,-0.0433,-0.043,-0.0431,-0.0438,-0.0402,-0.0396,-0.0371,-0.0332,-0.0308,-0.0252,-0.0216,-0.0136,-0.0093,-0.0048,0.0008,0.0064,0.0114,0.01,0.0106,0.0155,0.0247,0.0278,0.0293,0.014,0.0142,0.0143,0.0277,0,-0.0481,-0.0522,-0.0494,-0.0515,-0.053,-0.0468,-0.0447,-0.0398,-0.0341,-0.0291,-0.0205,-0.0152,-0.011,-0.0079,-0.0019,0.0083,0.014,0.0075,0.0259,0.0265,0.0296,0.0306,0.0263,0.0381,0.0288,0.029,0.0291,0,-0.0535,-0.0554,-0.0595,-0.0582,-0.058,-0.0575,-0.0522,-0.0495,-0.0402,-0.0355,-0.028,-0.0209,-0.0118,-0.0087,0.0083,0.0039,0.0132,0.0211,0.0218,0.0287,0.0317,0.0388,0.0405,0.031,0.0309,0.0307,0.0306,0,-0.06,-0.0617,-0.0654,-0.0652,-0.0631,-0.0625,-0.06,-0.052,-0.0487,-0.0394,-0.0354,-0.0237,-0.0167,-0.0045,0.0115,0.0101,0.0305,0.0311,0.043,0.0434,0.0455,0.0458,0.043,0.043,0.043,0.0429,0.0429,0,-0.0664,-0.0688,-0.0691,-0.0713,-0.0739,-0.0691,-0.0684,-0.0635,-0.0553,-0.0499,-0.0397,-0.0322,-0.0153,-0.0014,0.0113,0.0312,0.031,0.0436,0.0476,0.0424,0.0422,0.0408,0.0403,0.0434,0.0433,0.0432,0.0431,0,-0.0731,-0.0734,-0.0777,-0.0777,-0.0778,-0.0795,-0.0756,-0.0738,-0.065,-0.0574,-0.0547,-0.0374,-0.0185,-0.0011,0.0214,0.0322,0.0496,0.0565,0.049,0.0518,0.0581,0.0571,0.071,0.0713,0.0715,0.0716,0.0718,0,-0.0769,-0.0804,-0.084,-0.0869,-0.0875,-0.0885,-0.0885,-0.0805,-0.0767,-0.059,-0.0555,-0.0357,-0.0188,0.014,0.0348,0.0582,0.0574,0.0674,0.0643,0.0588,0.0613,0.0599,0.0587,0.0638,0.0638,0.0639,0.0639,0,-0.0837,-0.0851,-0.0887,-0.0959,-0.0982,-0.0997,-0.0979,-0.0957,-0.0826,-0.072,-0.0526,-0.0372,-0.0052,0.0206,0.0484,0.0608,0.0627,0.0693,0.0679,0.0566,0.0529,0.055,0.0538,0.0644,0.0643,0.0643,0.0643,0.0642,-0.0875,-0.0923,-0.0975,-0.1034,-0.1069,-0.1081,-0.1067,-0.1001,-0.0903,-0.0688,-0.0524,-0.025,-0.0028,0.0383,0.0565,0.072,0.0724,0.0755,0.0749,0.0744,0.0705,0.0673,0.0807,0.0807,0.0808,0.0808,0.0808,0,-0.0914,-0.0969,-0.1041,-0.1104,-0.1146,-0.1142,-0.1102,-0.1069,-0.0929,-0.066,-0.0426,-0.0141,0.0151,0.0371,0.063,0.0788,0.0754,0.0798,0.0716,0.0711,0.0706,0.0661,0.0754,0.0755,0.0755,0.0755,0,0,-0.0936,-0.1015,-0.1058,-0.1144,-0.1182,-0.1186,-0.1147,-0.1062,-0.0885,-0.0624,-0.0358,-0.0075,0.0188,0.0354,0.0531,0.0659,0.0646,0.0663,0.0689,0.0567,0.0561,0.0665,0.0589,0,0,0,0,0]}],[{"header":{"parameterUnit":"m.s-1","parameterCategory":2,"la1":30.2991,"la2":30.254,"lo1":-89.0895,"lo2":-89.0444,"dy":0.0017,"dx":0.0017,"nx":28,"ny":28,"refTime":"2025-05-15T03:00:00:Z","depth":"4","parameterNumber":2,"parameterNumberName":"U-component_of_CURRENTS"},"data":[0,0,0,0,0,0,0,0,0,0,0,0,0,0,0,0,0,0,0,0,0,0,0,0,0,0,0,0,0,0,0,0,0,0,0,0,0,0,0,0,0,0,0,0,0,0,0,0,0,0,0,0,0,0,0,0,0,0,-0.1646,-0.1647,0,-0.173,-0.1731,-0.1732,-0.1784,-0.1784,-0.1784,-0.1785,-0.1819,-0.1819,-0.182,0,0,0,0,0,0,0,0,0,0,0,0,0,-0.1527,-0.1528,-0.1646,-0.1647,-0.1648,-0.173,-0.1731,-0.1732,-0.1784,-0.1784,-0.1784,-0.1785,-0.1819,-0.1819,-0.182,0,0,0,0,0,0,0,0,0,0,0,0,0,-0.159,-0.1529,-0.1646,-0.1685,-0.1689,-0.173,-0.1731,-0.1733,-0.1783,-0.1784,-0.1785,-0.1785,-0.1819,-0.1819,-0.182,-0.1815,0,0,-0.1823,-0.1823,0,0,0,0,0,0,0,0,-0.1587,-0.1595,-0.1678,-0.1682,-0.1687,-0.1748,-0.1702,-0.1758,-0.1783,-0.1746,-0.1785,-0.1785,-0.1791,-0.1794,-0.1808,-0.1816,-0.1818,-0.1823,-0.1823,-0.1824,-0.1824,0,0,0,0,0,0,0,-0.1582,-0.1591,-0.1678,-0.1679,-0.1685,-0.1697,-0.1706,-0.1713,-0.1763,-0.175,-0.1754,-0.1765,-0.1793,-0.1807,-0.1809,-0.1818,-0.1823,-0.1824,-0.1824,-0.1825,-0.1892,-0.1893,0,0,0,0,0,0,-0.1574,-0.1587,-0.1676,-0.1681,-0.1638,-0.1699,-0.1709,-0.1727,-0.1764,-0.1771,-0.1764,-0.1767,-0.1805,-0.1808,-0.181,-0.188,-0.1824,-0.1825,-0.1825,-0.189,-0.1892,-0.1893,0,0,0,0,0,0,-0.1571,-0.1581,-0.1672,-0.1636,-0.1649,-0.17,-0.172,-0.1728,-0.177,-0.1776,-0.1782,-0.18,-0.1806,-0.1809,-0.1852,-0.1878,-0.1825,-0.1826,-0.1889,-0.1891,-0.1892,-0.197,0,0,0,0,0,0,-0.1567,-0.158,-0.1604,-0.1636,-0.1651,-0.1717,-0.172,-0.173,-0.1774,-0.1779,-0.1807,-0.181,-0.1806,-0.1851,-0.1853,-0.1879,-0.1826,-0.1887,-0.189,-0.1892,-0.1966,-0.1975,-0.1982,0,0,0,0,0,-0.1563,-0.1591,-0.1605,-0.1616,-0.1678,-0.1718,-0.1728,-0.1764,-0.1776,-0.1801,-0.1828,-0.181,-0.1866,-0.1853,-0.1855,-0.1882,-0.1886,-0.1889,-0.1892,-0.1963,-0.1973,-0.1982,0,0,0,0,0,0,-0.1553,-0.16,-0.1615,-0.1657,-0.1694,-0.1728,-0.1759,-0.1779,-0.1821,-0.1832,-0.1834,-0.1839,-0.1885,-0.1872,-0.1857,-0.1906,-0.187,-0.1873,-0.1923,-0.1933,-0.1941,-0.1932,-0.1827,0,0,0,0,0,-0.156,-0.1595,-0.1635,-0.1671,-0.1692,-0.1729,-0.1755,-0.1781,-0.1814,-0.1835,-0.1856,-0.1874,-0.1893,-0.1906,-0.192,-0.1949,-0.1919,-0.1964,-0.1972,-0.1979,-0.1973,-0.1968,-0.1975,-0.1903,-0.1902,-0.1902,0,0,-0.1567,-0.1597,-0.1619,-0.1672,-0.1704,-0.1744,-0.1747,-0.1796,-0.1835,-0.1829,-0.1895,-0.1907,-0.1908,-0.1949,-0.1966,-0.1945,-0.1983,-0.1982,-0.1988,-0.1978,-0.1972,-0.1979,-0.1985,-0.1904,-0.1904,-0.1904,0,0,-0.1587,-0.1625,-0.1659,-0.1694,-0.1748,-0.1772,-0.1791,-0.1842,-0.1874,-0.193,-0.1937,-0.1969,-0.2001,-0.201,-0.2014,-0.207,-0.2029,-0.2075,-0.2106,-0.2103,-0.2109,-0.2113,-0.2081,-0.2082,-0.2075,-0.2075,-0.2075,0,-0.1595,-0.1642,-0.1675,-0.1716,-0.175,-0.1787,-0.183,-0.1867,-0.1929,-0.1953,-0.1962,-0.2019,-0.2026,-0.2062,-0.2087,-0.2088,-0.2069,-0.2073,-0.2113,-0.2117,-0.212,-0.2086,-0.2086,-0.2079,-0.2079,-0.2078,-0.2078,0,-0.1631,-0.1682,-0.1706,-0.1769,-0.181,-0.1854,-0.1904,-0.1951,-0.199,-0.2019,-0.2076,-0.2094,-0.212,-0.2133,-0.213,-0.2162,-0.2135,-0.2128,-0.2088,-0.2132,-0.2093,-0.2092,-0.2085,-0.2083,-0.2082,-0.2081,0,0,-0.1607,-0.1712,-0.1723,-0.1763,-0.1843,-0.1876,-0.1945,-0.2006,-0.2043,-0.2101,-0.2141,-0.2188,-0.2193,-0.2197,-0.2199,-0.2201,-0.2215,-0.218,-0.2178,-0.2146,-0.2189,-0.2038,-0.2021,-0.222,-0.2221,-0.2221,-0.215,0,-0.1626,-0.1707,-0.1758,-0.1838,-0.1881,-0.1941,-0.1997,-0.2057,-0.2103,-0.215,-0.2174,-0.2214,-0.2218,-0.2233,-0.2242,-0.2223,-0.2216,-0.2233,-0.2152,-0.2148,-0.2008,-0.2016,-0.2222,-0.2148,-0.2148,-0.2148,-0.2148,0,-0.1634,-0.1691,-0.1773,-0.1871,-0.1896,-0.1951,-0.2035,-0.2092,-0.2159,-0.2192,-0.2233,-0.2248,-0.2274,-0.2265,-0.2252,-0.2265,-0.2233,-0.2211,-0.2207,-0.2034,-0.1994,-0.2096,-0.2144,-0.2145,-0.2145,-0.2145,-0.2145,0,-0.1581,-0.1696,-0.1763,-0.1798,-0.1914,-0.1963,-0.2025,-0.2104,-0.2146,-0.2215,-0.2237,-0.2273,-0.228,-0.2269,-0.223,-0.2248,-0.2187,-0.2201,-0.2029,-0.2018,-0.2142,-0.2138,-0.2178,-0.2178,-0.2178,-0.2178,-0.2178,0,-0.1559,-0.1614,-0.1749,-0.1782,-0.1855,-0.1947,-0.2018,-0.2079,-0.2157,-0.2183,-0.2252,-0.2247,-0.2283,-0.2254,-0.2227,-0.2104,-0.2181,-0.2019,-0.1987,-0.2176,-0.2176,-0.214,-0.2137,-0.2175,-0.2176,-0.2177,-0.2177,0,-0.1479,-0.1575,-0.1652,-0.1788,-0.1832,-0.1881,-0.2007,-0.2042,-0.2133,-0.2165,-0.2185,-0.2226,-0.2175,-0.2174,-0.2129,-0.2065,-0.1987,-0.1924,-0.21,-0.2082,-0.1823,-0.1825,-0.1728,-0.1722,-0.1717,-0.1712,-0.1709,0,-0.144,-0.1476,-0.163,-0.1669,-0.1735,-0.1829,-0.188,-0.2008,-0.2036,-0.2119,-0.2104,-0.2099,-0.2101,-0.19,-0.193,-0.1845,-0.1827,-0.1782,-0.1828,-0.1797,-0.1776,-0.1786,-0.1795,-0.1701,-0.1699,-0.1698,-0.1697,0,-0.135,-0.1421,-0.1482,-0.1566,-0.1639,-0.1704,-0.1789,-0.1797,-0.1917,-0.2028,-0.1953,-0.1907,-0.1833,-0.1777,-0.171,-0.1663,-0.1816,-0.1729,-0.1741,-0.1783,-0.1763,-0.175,-0.1764,-0.1679,-0.1682,-0.1683,-0.1684,0,-0.1272,-0.1291,-0.1377,-0.1432,-0.1515,-0.153,-0.1607,-0.163,-0.1677,-0.179,-0.1751,-0.1748,-0.1798,-0.1677,-0.1622,-0.1553,-0.1542,-0.151,-0.1533,-0.1553,-0.1529,-0.1481,-0.1264,0,0,0,0,0,-0.1184,-0.1188,-0.123,-0.1278,-0.1348,-0.1389,-0.1513,-0.1592,-0.1721,-0.162,-0.1685,-0.1609,-0.1515,-0.1514,-0.1402,-0.154,-0.1548,-0.1406,-0.1525,-0.1582,-0.1602,-0.1591,0,0,0,0,0,0,-0.1124,-0.1161,-0.1178,-0.1125,-0.1117,-0.1174,-0.1243,-0.134,-0.1302,-0.1436,-0.1382,-0.1494,-0.1414,-0.1522,-0.1351,-0.1355,-0.1396,-0.143,-0.1425,-0.157,-0.1589,-0.1605,-0.1601,0,0,0,0,0]},{"header":{"parameterUnit":"m.s-1","parameterCategory":2,"la1":30.2991,"la2":30.254,"lo1":-89.0895,"lo2":-89.0444,"dy":0.0017,"dx":0.0017,"nx":28,"ny":28,"refTime":"2025-05-15T03:00:00:Z","depth":"4","parameterNumber":3,"parameterNumberName":"V-component_of_CURRENTS"},"data":[0,0,0,0,0,0,0,0,0,0,0,0,0,0,0,0,0,0,0,0,0,0,0,0,0,0,0,0,0,0,0,0,0,0,0,0,0,0,0,0,0,0,0,0,0,0,0,0,0,0,0,0,0,0,0,0,0,0,-0.0178,-0.0178,0,-0.0138,-0.0137,-0.0137,-0.0105,-0.0105,-0.0104,-0.0104,-0.0058,-0.0057,-0.0056,0,0,0,0,0,0,0,0,0,0,0,0,0,-0.0207,-0.0206,-0.0178,-0.0178,-0.0177,-0.0138,-0.0137,-0.0136,-0.0105,-0.0105,-0.0104,-0.0104,-0.0059,-0.0057,-0.0056,0,0,0,0,0,0,0,0,0,0,0,0,0,-0.0182,-0.0206,-0.0178,-0.0157,-0.0155,-0.0138,-0.0137,-0.0136,-0.0105,-0.0105,-0.0104,-0.0104,-0.0059,-0.0058,-0.0056,-0.0053,0,0,-0.0051,-0.0051,0,0,0,0,0,0,0,0,-0.0184,-0.0181,-0.0161,-0.0159,-0.0156,-0.0127,-0.013,-0.0109,-0.0105,-0.0123,-0.0104,-0.0104,-0.0082,-0.0078,-0.007,-0.0051,-0.0049,-0.0051,-0.005,-0.005,-0.0049,0,0,0,0,0,0,0,-0.0186,-0.0183,-0.0161,-0.0161,-0.0158,-0.0143,-0.0139,-0.0126,-0.0104,-0.0122,-0.0119,-0.0116,-0.008,-0.0072,-0.0069,-0.0049,-0.0051,-0.005,-0.0049,-0.0048,0.001,0.001,0,0,0,0,0,0,-0.0194,-0.0184,-0.0162,-0.016,-0.0171,-0.0143,-0.0139,-0.0136,-0.0104,-0.0099,-0.0117,-0.0115,-0.0074,-0.0071,-0.0067,-0.004,-0.005,-0.0048,-0.0047,0.0009,0.001,0.0011,0,0,0,0,0,0,-0.0195,-0.0192,-0.0164,-0.0172,-0.0167,-0.0143,-0.014,-0.0135,-0.0128,-0.0101,-0.0095,-0.0114,-0.0074,-0.0069,-0.0038,-0.0039,-0.0048,-0.0046,0.0008,0.0009,0.001,-0.0001,0,0,0,0,0,0,-0.0196,-0.0193,-0.0196,-0.0173,-0.0167,-0.0158,-0.014,-0.0135,-0.0127,-0.0124,-0.0097,-0.0092,-0.0073,-0.0041,-0.0037,-0.0037,-0.0045,0.0008,0.0009,0.001,-0.0002,-0.0001,-0.0,0,0,0,0,0,-0.0197,-0.0203,-0.0196,-0.0194,-0.0172,-0.0159,-0.0155,-0.0135,-0.0127,-0.0126,-0.0093,-0.0093,-0.0031,-0.0039,-0.0034,-0.0035,0.0007,0.0009,0.001,-0.0002,-0.0001,-0.0,0,0,0,0,0,0,-0.0219,-0.02,-0.0192,-0.0193,-0.0179,-0.0154,-0.0154,-0.014,-0.0114,-0.0111,-0.0082,-0.0074,-0.0049,-0.0037,-0.0047,-0.0013,-0.0014,-0.0011,-0.0024,-0.0023,-0.0022,-0.0037,-0.0044,0,0,0,0,0,-0.0226,-0.0226,-0.0204,-0.0207,-0.0201,-0.0179,-0.0172,-0.0159,-0.0133,-0.0122,-0.01,-0.0071,-0.004,-0.0028,-0.0005,0.0013,0.0034,0.0015,0.0016,0.0017,0.0009,0.0063,0.0068,0.0015,0.0015,0.0015,0,0,-0.0236,-0.0226,-0.0227,-0.0212,-0.02,-0.0195,-0.0174,-0.0167,-0.0158,-0.0122,-0.0102,-0.007,-0.0034,-0.0007,0.0004,0.0002,0.0042,0.0018,0.0019,0.0011,0.0065,0.007,0.0075,0.0016,0.0016,0.0016,0,0,-0.0261,-0.0248,-0.0258,-0.0247,-0.0232,-0.0213,-0.0214,-0.0189,-0.0172,-0.0148,-0.0112,-0.0073,-0.0045,-0.0005,0.0016,0.0035,0.0046,0.0032,0.0023,0.0076,0.008,0.0085,0.0113,0.012,0.0032,0.0032,0.0032,0,-0.0277,-0.0284,-0.026,-0.0264,-0.0258,-0.0224,-0.0231,-0.0206,-0.0173,-0.0154,-0.0147,-0.0071,-0.004,0.0011,0.0021,0.0035,0.0056,0.0015,0.0076,0.0081,0.0086,0.0114,0.0121,0.0031,0.0031,0.0031,0.0031,0,-0.0307,-0.0311,-0.0316,-0.0307,-0.0295,-0.0297,-0.026,-0.0242,-0.0217,-0.0187,-0.0138,-0.0082,-0.0038,-0.0018,0.0006,0.0054,0.0055,0.0072,0.0071,0.009,0.0118,0.0127,0.0031,0.0031,0.0031,0.0031,0,0,-0.0345,-0.0341,-0.0343,-0.0349,-0.032,-0.0316,-0.029,-0.0258,-0.024,-0.0194,-0.0166,-0.0093,-0.0062,-0.0035,0.0007,0.0055,0.0111,0.007,0.0073,0.0091,0.0209,0.0183,0.019,0.0138,0.0139,0.014,0.0213,0,-0.0379,-0.0407,-0.0385,-0.0401,-0.0411,-0.0364,-0.0345,-0.0305,-0.0262,-0.0223,-0.0148,-0.0108,-0.0068,-0.0047,0.0011,0.0085,0.0133,0.0088,0.0192,0.0194,0.0166,0.0199,0.0145,0.0219,0.0221,0.0222,0.0223,0,-0.0415,-0.043,-0.0462,-0.0453,-0.0451,-0.0451,-0.0412,-0.0388,-0.0311,-0.0276,-0.021,-0.0155,-0.0073,-0.0046,0.0092,0.0058,0.0127,0.0186,0.0191,0.0174,0.0185,0.0199,0.0239,0.0237,0.0236,0.0235,0.0234,0,-0.0465,-0.0478,-0.0509,-0.0508,-0.0492,-0.0493,-0.0476,-0.0412,-0.0387,-0.0312,-0.0285,-0.0179,-0.0129,-0.0023,0.0098,0.0096,0.0241,0.0257,0.0301,0.03,0.0304,0.0299,0.0355,0.0354,0.0354,0.0354,0.0354,0,-0.0506,-0.0529,-0.0543,-0.0561,-0.0592,-0.0552,-0.0557,-0.0517,-0.0455,-0.0418,-0.0324,-0.0268,-0.0119,-0.0016,0.0089,0.0215,0.024,0.0301,0.0323,0.0296,0.0289,0.0309,0.0303,0.0357,0.0356,0.0356,0.0355,0,-0.0552,-0.0561,-0.0603,-0.0614,-0.0623,-0.0645,-0.0627,-0.0618,-0.055,-0.0498,-0.0477,-0.0332,-0.0193,-0.0051,0.0126,0.0198,0.0322,0.0362,0.0306,0.0323,0.0344,0.0337,0.0415,0.0415,0.0415,0.0415,0.0415,0,-0.0574,-0.0605,-0.0659,-0.0696,-0.071,-0.0733,-0.0744,-0.0683,-0.0657,-0.0526,-0.0501,-0.0358,-0.0252,-0.0023,0.0121,0.0306,0.0335,0.0383,0.0381,0.034,0.0354,0.0346,0.0339,0.0414,0.0414,0.0414,0.0414,0,-0.0617,-0.0645,-0.0683,-0.0769,-0.0809,-0.0837,-0.0838,-0.0822,-0.0723,-0.0663,-0.0503,-0.0357,-0.0201,-0.002,0.0116,0.0254,0.0342,0.0382,0.0384,0.0382,0.0341,0.0352,0.0345,0.0414,0.0414,0.0414,0.0414,0,-0.0645,-0.0691,-0.0755,-0.0821,-0.0886,-0.0916,-0.0908,-0.0845,-0.0797,-0.0626,-0.0572,-0.0371,-0.024,-0.0046,0.0088,0.0208,0.0242,0.0273,0.0281,0.0283,0.0221,0.0147,0.0184,0,0,0,0,0,-0.066,-0.0716,-0.0796,-0.087,-0.0938,-0.0962,-0.0955,-0.0922,-0.0821,-0.0715,-0.063,-0.0469,-0.0224,-0.0112,0.0005,0.0052,0.0227,0.0189,0.0258,0.0411,0.0412,0.0359,0,0,0,0,0,0,-0.0672,-0.0753,-0.0798,-0.0895,-0.0947,-0.1004,-0.0996,-0.093,-0.0851,-0.0727,-0.0598,-0.0463,-0.024,-0.0295,0.0,0.0041,0.0096,0.032,0.0322,0.0411,0.0411,0.0412,0.0358,0,0,0,0,0]}]]